Regional Weather Roundup
Issued by NWS

Home | Current Version | Previous Version | Graphics & Text | Print | Product List | Glossary Off
Versions: 1 2 3 4 5 6 7 8 9 10 11 12 13 14 15 16 17 18 19 20 21 22 23 24 25 26 27 28 29 30 31 32 33 34 35 36 37 38 39 40 41 42 43 44 45 46 47 48 49 50

000
ASUS43 KMKX 052200
RWRWI

WISCONSIN REGIONAL WEATHER ROUNDUP
NATIONAL WEATHER SERVICE MILWAUKEE/SULLIVAN WI
400 PM CST FRI FEB 05 2016

NOTE: "FAIR" INDICATES FEW OR NO CLOUDS BELOW 12,000 FEET WITH NO
SIGNIFICANT WEATHER AND/OR OBSTRUCTIONS TO VISIBILITY.

WIZ001-002-006>008-014>016-023>028-052300-
NORTHWEST WISCONSIN

CITY           SKY/WX    TMP DP  RH WIND       PRES   REMARKS
SUPERIOR ARPT  CLOUDY    29  13  51 SW10      30.16F WCI  20
ASHLAND        CLOUDY    28  11  48 S13       30.18F WCI  17
HAYWARD        SUNNY     24  10  55 S14       30.18F WCI  12
SIREN          PTSUNNY   26  12  55 SW14      30.20F WCI  15
CUMBERLAND     CLOUDY    21  12  68 S7        30.22S WCI  13
RICE LAKE      CLOUDY    23  13  65 SE5       30.25F WCI  17
CHETEK         CLOUDY    23  12  63 S5        30.24F WCI  17
LADYSMITH      CLOUDY    23  11  60 S8        30.25F WCI  14
EAU CLAIRE     CLOUDY    23  12  62 S8        30.25F WCI  14
MENOMONIE      MOSUNNY   28  15  56 SE6       30.27S WCI  22
NEW RICHMOND   CLOUDY    25  14  64 S6        30.24S WCI  18
OSCEOLA        CLOUDY    27  16  62 S8        30.26S WCI  19
$$

WIZ003>005-009-010-017-018-052300-
NORTH CENTRAL WISCONSIN

CITY           SKY/WX    TMP DP  RH WIND       PRES   REMARKS
MANITOWISH WTR PTCLDY    23   8  52 S7        30.18S WCI  15
ARBOR VITAE    PTCLDY    27   9  47 SW8       30.19S WCI  18
WOODRUFF       PTCLDY    27   9  47 SW8       30.19S WCI  18
RHINELANDER    PTCLDY    26   8  46 SW9       30.20F WCI  17
EAGLE RIVER    CLEAR     24   5  45 SW8       30.18S WCI  15
LAND O LAKES   CLOUDY    27   7  42 S7        30.18F WCI  20
PHILLIPS       CLOUDY    25   9  51 SW8       30.20S WCI  16
TOMAHAWK       MOSUNNY   27   6  41 SW3       30.22S
MEDFORD        CLOUDY    21  13  71 S7        30.23F WCI  13
MERRILL        CLOUDY    24  11  56 SW7       30.25S WCI  16
$$

WIZ029-030-035-036-043>047-052300-
CENTRAL WISCONSIN

CITY           SKY/WX    TMP DP  RH WIND       PRES   REMARKS
WAUSAU         CLOUDY    26  10  50 SW7       30.24S WCI  18
MOSINEE        SUNNY     25  12  58 SW6       30.26F WCI  18
MARSHFIELD     CLOUDY    25  13  60 CALM      30.24F
STEVENS POINT  CLOUDY    26  13  58 SW6       30.28S WCI  19
WAUPACA        CLOUDY    30  15  53 SW6       30.30S WCI  24
WAUTOMA        NOT AVBL
WISC RAPIDS    CLOUDY    25  15  66 S8        30.29F WCI  16
CAMP DOUGLAS   NOT AVBL
$$

WIZ011>013-019>022-031-037>040-048>050-052300-
NORTHEAST WISCONSIN

CITY           SKY/WX    TMP DP  RH WIND       PRES   REMARKS
ANTIGO         PTCLDY    23  11  60 SW8       30.22S WCI  13
SHAWANO        CLEAR     31  11  43 SW5       30.28F WCI  26
OCONTO         CLEAR     27  14  59 W7        30.29S WCI  19
STURGEON BAY   CLEAR     23  10  58 SW7       30.31S WCI  15
GREEN BAY      CLEAR     25  14  63 S6        30.29F WCI  18
MANITOWOC      NOT AVBL
APPLETON       PTSUNNY   27  12  54 SW6       30.27S WCI  20
CLINTONVILLE   CLEAR     30  14  51 SW5       30.29S WCI  25
OSHKOSH        CLOUDY    25  16  68 SW6       30.30F WCI  18
$$

WIZ032>034-041-042-053>061-052300-
SOUTHWEST WISCONSIN

CITY           SKY/WX    TMP DP  RH WIND       PRES   REMARKS
LA CROSSE      CLOUDY    25  14  63 S9        30.31F WCI  15
SPARTA         CLOUDY    27  16  65 CALM      30.32S
VIROQUA        CLOUDY    25  16  68 S7        30.29F WCI  17
BOSCOBEL       CLOUDY    28  17  63 S6        30.34S WCI  22
PRAIRIE DU CHI CLOUDY    28  13  53 SW5       30.34S WCI  23
PLATTEVILLE    CLOUDY    28  20  72 SW6       30.33S WCI  22
$$

WIZ056-057-062-063-064-067-068-052300-
SOUTH CENTRAL WISCONSIN

CITY           SKY/WX    TMP DP  RH WIND       PRES   REMARKS
REEDSBURG      CLOUDY    28  18  66 SW5       30.31S WCI  22
BARABOO/DELLS  CLOUDY    28  16  60 W5        30.30S WCI  23
LONE ROCK      PTSUNNY   27  17  66 S9        30.34S WCI  18
MINERAL POINT  CLOUDY    30  19  64 SW6       30.32S WCI  24
MADISON        CLOUDY    29  16  58 W3        30.32F
MIDDLETON      CLOUDY    31  19  60 SW8       30.32F WCI  23
WATERTOWN      CLOUDY    29  17  60 W5        30.33R WCI  24
MONROE         CLOUDY    28  19  69 W7        30.32S WCI  21
JANESVILLE     SUNNY     30  18  59 W7        30.34R WCI  23
$$

WIZ051-052-058>065-066-070>072-052300-
SOUTHEAST WISCONSIN

CITY           SKY/WX    TMP DP  RH WIND       PRES   REMARKS
MILWAUKEE      PTSUNNY   31  12  45 W9        30.33R WCI  23
WAUKESHA       SUNNY     27  16  63 W8        30.33R WCI  18
MILWAUKEE/TIMM SUNNY     28  12  50 W9        30.33R WCI  20
RACINE         PTSUNNY   32  14  47 W9        30.35R WCI  24
BURLINGTON     MOSUNNY   29  16  58 W8        30.34R WCI  21
KENOSHA        CLOUDY    30  18  60 W9        30.33S WCI  22
FOND DU LAC    CLOUDY    26  15  63 SW8       30.32S WCI  18
SHEBOYGAN      CLOUDY    25  14  63 W8        30.31S WCI  16
WEST BEND      CLOUDY    28  16  59 CALM      30.31S
JUNEAU         CLOUDY    25  17  69 SW8       30.33S WCI  16
$$

LSZ147-162-052300-
LAKE SUPERIOR

STATION/POSITION TIME  TEMP    WIND        PRES    WAVE
                       AIR SEA DIR/SP/G            HT/PER
                 (UTC) (F)     (DEG/KT/KT) (MB)    (FT/S)
DEVILS ISLAND    2100   25     190/  8/ 11 1023.2F
SAXON HARBOR     2100   30                 1022.4
$$

LMZ867-665-643>646-052300-
LAKE MICHIGAN

STATION/POSITION TIME  TEMP    WIND        PRES    WAVE
                       AIR SEA DIR/SP/G            HT/PER
                 (UTC) (F)     (DEG/KT/KT) (MB)    (FT/S)
CHAMBERS ISLAND  2100   26     180/  4/  8 1025.7S
NORTHPORT PIER   2100   26     270/  7/ 10 1025.4
ALGOMA LAKESHORE 2111          270/ 10/ 13   N/A
KEWAUNEE LAKESHO 2100   25     250/  6/  9 1025.2F
SHEBOYGAN LAKESH 2100   26     270/  7/  9 1027.8R
PORT WASHINGTON  2100   30     280/  5/  9 1027.4R
MILWAUKEE LAKESH 2110   31     300/  6/ 10   N/A
KENOSHA   LAKESH 2100   31     290/  9/ 11 1027.1R
$$

TC  - TEMPERATURE IN CELSIUS
VSB - VISIBILITY IN STATUTE MILES
WCI - WIND CHILL INDEX
HX  - HEAT INDEX




USA.gov is the U.S. government's official web portal to all federal, state and local government web resources and services.